This is the latest recevied weather packets stored in our database for station/object YC0TBU-3. If no packets are shown the sender has not sent any weather packets the latest 10 day(s).
| Time | Temp. | Humidity | Pressure | Rain* | Wind** | Luminosity | Snow |
|---|---|---|---|---|---|---|---|
| 1777243270 | 25° C | 52% | 1012.2 hPa | - | - | - | - |
| 1777242565 | 24.44° C | 53% | 1011 hPa | - | - | - | - |
| 1777241860 | 24.44° C | 54% | 1010.5 hPa | - | - | - | - |
| 1777241155 | 23.89° C | 55% | 1011.4 hPa | - | - | - | - |
| 1777240450 | 24.44° C | 54% | 1010.1 hPa | - | - | - | - |
| 1777239750 | 24.44° C | 55% | 1010.9 hPa | - | - | - | - |
| 1777239024 | 23.89° C | 56% | 1011.5 hPa | - | - | - | - |
| 1777238319 | 23.89° C | 56% | 1011.4 hPa | - | - | - | - |
| 1777237614 | 23.89° C | 55% | 1009 hPa | - | - | - | - |
| 1777236909 | 23.89° C | 55% | 1012 hPa | - | - | - | - |
| 1777236204 | 24.44° C | 54% | 1011.4 hPa | - | - | - | - |
| 1777235499 | 24.44° C | 53% | 1012.4 hPa | - | - | - | - |
| 1777234794 | 25° C | 52% | 1011.3 hPa | - | - | - | - |
| 1777234089 | 25° C | 52% | 1011.9 hPa | - | - | - | - |
| 1777233384 | 25.56° C | 52% | 1012.9 hPa | - | - | - | - |
| 1777232679 | 25.56° C | 51% | 1011.8 hPa | - | - | - | - |
| 1777231974 | 25.56° C | 52% | 1012.5 hPa | - | - | - | - |
| 1777231268 | 25.56° C | 52% | 1013.1 hPa | - | - | - | - |
| 1777230564 | 25.56° C | 51% | 1012.3 hPa | - | - | - | - |
| 1777229859 | 25° C | 53% | 1013.2 hPa | - | - | - | - |
| 1777229153 | 26.11° C | 51% | 1012.5 hPa | - | - | - | - |
| 1777228526 | 25° C | 53% | 1013.8 hPa | - | - | - | - |
| 1777227744 | 26.11° C | 51% | 1013 hPa | - | - | - | - |
| 1777227038 | 25.56° C | 52% | 1012.8 hPa | - | - | - | - |
| 1777226334 | 24.44° C | 54% | 1013.4 hPa | - | - | - | - |
* Rain since midnight (hover to see other rain measurements)
** Current wind speed in m/s (hover to see current wind gust speed)